Location: Newark
(43.6583°N, 1.6617°E)
Time: 03:33:53
(UTC+00:00)

Tiros 1 - Pass Details

Date: 31 August 2019
Orbit: 630 x 664 km, 48.4° (Epoch: 14 October)

Event Time Altitude Azimuth Distance (km) Brightness Sun altitude
Rises 01:27:43 0° 293° (WNW) 2,920 - -33.4°
Reaches altitude 10° 01:30:02 10° 295° (WNW) 2,013 - -33.2°
Maximum altitude 01:34:41 84° 21° (NNE) 643 - -32.8°
Drops below altitude 10° 01:39:21 10° 112° (ESE) 2,023 - -32.4°
Sets 01:41:41 0° 113° (ESE) 2,936 - -32.1°
